Wind_Speed
47 47 47 48 48 48 48 48 48 48 47 48 49 49 49 49 49 49 49 49 49 48 48 48 47 47 47 46 46 46 46 46 46 47 47 47 47 47
48 48 48 48 48 48 48 48 48 48 48 49 50 50 50 50 50 50 50 49 49 49 49 48 48 47 47 47 47 47 46 47 47 47 47 47 48 47
49 49 49 48 48 48 48 48 49 49 48 49 50 51 51 51 50 50 50 50 50 50 50 49 49 48 48 48 49 48 47 47 47 48 47 48 48 48
50 49 49 49 49 49 49 49 49 49 49 49 50 51 51 51 51 51 51 51 51 51 51 51 50 50 50 50 50 50 49 48 48 48 48 48 48 48
49 50 49 49 49 50 50 50 49 50 50 50 50 50 51 52 52 51 51 51 52 52 52 52 51 51 51 51 50 50 50 50 49 49 49 49 49 50
49 49 49 49 49 50 50 50 50 51 51 51 51 51 52 52 52 52 52 52 52 53 53 52 52 52 52 52 51 51 51 51 51 51 50 50 51 52
50 50 49 49 49 49 50 50 50 50 51 51 51 52 52 52 53 53 53 53 53 53 53 53 53 52 53 53 53 53 53 53 53 53 53 52 53 54
51 50 50 50 50 50 50 50 49 49 49 49 50 50 51 52 53 53 53 53 53 54 54 54 54 54 54 54 54 54 54 54 54 54 54 55 55 55
50 50 50 49 49 49 50 50 50 50 50 50 50 50 51 51 52 53 53 53 54 54 54 54 54 54 54 54 54 54 55 56 56 56 56 56 56 56
50 49 49 49 49 49 49 50 50 50 51 51 50 50 51 51 52 53 54 54 54 54 54 54 54 54 54 55 55 55 56 57 57 57 56 56 56 56
50 50 50 49 49 50 50 50 50 50 51 51 50 50 51 51 52 53 53 53 53 54 54 54 54 55 55 55 56 56 56 56 57 57 57 57 56 56
50 50 50 50 50 49 50 50 50 50 50 51 50 50 50 51 52 52 52 52 52 53 53 54 54 54 55 55 55 55 55 56 56 57 57 57 57 57
49 50 50 50 50 50 50 50 50 50 50 50 50 51 51 52 52 52 52 53 53 53 54 54 54 54 54 54 54 55 55 56 56 56 57 57 57 58
48 49 49 50 50 50 50 50 50 50 51 52 52 51 51 52 53 53 53 53 53 53 53 53 53 53 54 54 54 55 55 56 56 55 56 56 57 57
47 47 48 49 49 50 50 50 51 51 51 51 51 51 51 52 53 53 54 54 53 53 53 53 53 53 54 54 54 54 54 53 54 54 54 55 55 56
47 47 47 47 48 48 49 50 50 50 50 50 50 51 51 52 53 53 52 52 52 52 52 52 53 53 52 52 52 52 53 52 52 52 52 52 53 53
48 47 47 47 47 48 48 49 49 49 49 49 50 50 51 51 50 51 51 51 51 51 51 51 52 52 52 51 51 51 52 52 52 52 51 51 51 52
47 48 48 47 47 47 48 49 48 47 48 48 49 49 50 50 50 50 50 50 50 50 50 50 50 50 50 50 51 51 51 51 51 51 51 50 50 50
47 47 48 47 47 48 48 48 48 48 47 48 48 48 48 48 47 47 48 48 48 49 49 50 50 49 49 48 48 49 50 50 50 50 50 50 49 49
45 45 46 46 46 46 46 47 47 48 47 48 48 47 46 45 45 45 46 46 47 48 48 48 48 48 48 48 47 48 48 48 48 48 48 48 48 48
44 44 44 44 44 44 45 45 46 47 47 46 46 45 44 44 43 44 45 45 46 46 46 46 46 47 47 46 45 45 46 46 46 47 47 48 47 47
43 43 43 43 43 43 44 44 44 44 44 44 44 44 44 44 42 42 43 43 44 44 44 44 44 44 44 44 43 43 43 44 44 45 46 47 46 45
40 41 41 41 42 41 41 42 42 42 42 42 42 43 42 42 41 41 41 41 42 42 41 42 42 42 42 42 42 42 42 43 43 44 44 45 44 44
Wind_Direction
258 259 260 261 262 263 262 262 261 259 258 257 258 258 259 260 262 263 265 266 267 267 267 267 268 268 269 270 271 272 272 272 273 273 273 272 271 271
259 259 260 261 262 262 262 262 262 261 259 258 258 258 259 260 261 262 264 265 266 267 267 267 267 268 268 269 271 272 272 272 273 273 272 272 272 271
259 260 261 261 261 261 262 263 262 262 261 260 259 259 260 260 261 262 264 265 265 266 266 266 266 267 268 269 270 270 271 272 272 272 272 272 271 271
259 259 260 260 261 262 262 262 262 262 261 261 261 260 260 260 261 262 263 264 265 266 266 266 266 267 268 269 270 270 271 271 272 272 271 271 271 271
258 258 260 260 261 262 262 262 262 262 263 262 262 261 261 261 262 263 264 264 265 265 266 266 266 267 268 269 270 270 270 271 271 271 271 271 271 271
258 258 259 260 261 262 262 262 262 262 263 263 263 263 263 262 263 264 264 264 265 266 266 266 267 267 268 269 270 270 270 270 270 270 270 271 271 271
257 258 258 260 261 261 261 262 262 262 263 264 264 264 264 264 264 264 264 264 265 266 266 266 267 268 268 269 270 270 270 270 270 271 271 271 271 272
257 257 258 260 260 260 261 262 262 262 263 264 265 265 265 265 265 265 265 265 265 266 266 266 267 267 268 268 269 270 271 271 271 271 271 272 271 272
257 258 258 259 260 261 261 261 261 261 263 265 266 267 266 266 265 265 265 265 265 266 266 267 266 267 267 268 269 270 271 271 272 272 272 272 272 272
258 259 260 261 261 261 261 261 261 262 264 265 266 267 267 267 266 266 265 266 265 265 266 266 266 266 267 268 269 270 271 272 272 272 273 273 272 272
258 259 260 260 261 261 262 263 263 264 265 266 267 267 267 267 266 266 266 266 265 265 266 266 266 266 267 269 270 271 272 272 272 272 272 273 272 272
258 259 260 260 261 262 263 264 265 265 266 266 266 266 266 266 266 266 266 265 265 266 266 267 267 267 268 269 271 271 271 272 272 272 272 272 272 272
258 259 260 261 262 263 264 264 265 266 266 266 265 265 265 265 265 264 264 265 266 266 267 267 268 269 270 270 271 271 272 272 272 272 272 272 273 273
259 260 260 261 262 262 263 263 264 265 265 266 265 265 266 265 264 264 264 265 265 267 268 268 269 270 271 271 271 272 272 272 272 272 272 273 273 273
259 260 261 261 261 262 262 263 264 265 265 266 266 266 266 266 265 264 265 265 266 267 268 269 270 270 271 272 272 272 273 273 273 272 273 273 274 274
259 260 260 261 262 263 263 263 264 265 266 265 265 265 265 266 266 266 266 266 266 267 268 269 270 271 271 272 272 272 273 273 273 273 273 274 274 273
259 260 261 262 262 263 262 262 263 264 265 265 264 265 265 266 266 266 266 267 267 267 267 268 269 270 271 272 271 272 273 274 274 274 274 274 274 274
260 260 261 262 263 263 264 263 264 264 265 265 266 266 267 267 267 267 267 267 267 267 267 268 268 269 270 271 272 273 274 274 274 274 274 275 275 275
261 261 261 263 264 264 264 264 264 264 265 266 266 268 268 267 266 266 267 267 266 267 268 269 269 270 271 271 272 273 274 274 274 274 275 276 276 275
263 263 263 264 265 265 264 264 264 264 265 266 266 267 267 266 266 267 266 267 268 268 268 269 270 271 272 272 273 273 274 274 275 275 275 276 276 276
264 264 264 264 264 265 264 264 265 265 265 266 266 266 266 265 266 267 267 268 268 269 269 269 271 272 273 273 274 273 274 275 275 275 276 276 276 276
264 264 265 265 264 264 264 265 265 265 266 266 266 266 266 265 266 267 267 268 269 269 269 270 271 272 273 274 274 274 274 275 275 276 277 277 277 276
265 265 265 264 264 264 265 264 265 266 267 267 267 265 265 265 265 266 267 268 269 269 269 270 271 272 273 273 273 273 274 275 277 278 278 279 278 277
Height
5660 5661 5663 5664 5664 5665 5666 5667 5668 5669 5671 5672 5674 5675 5676 5677 5678 5679 5680 5681 5681 5682 5682 5683 5684 5684 5685 5685 5685 5685 5685 5685 5686 5685 5685 5684 5684 5684
5648 5649 5650 5651 5652 5652 5653 5654 5655 5656 5658 5660 5661 5662 5663 5664 5665 5666 5667 5668 5669 5669 5670 5670 5671 5672 5672 5672 5672 5672 5672 5672 5672 5672 5671 5671 5671 5671
5635 5636 5638 5638 5639 5640 5641 5641 5642 5643 5645 5647 5647 5648 5650 5651 5652 5653 5654 5655 5656 5656 5657 5658 5658 5659 5659 5659 5659 5659 5659 5659 5659 5659 5658 5658 5657 5658
5622 5623 5624 5626 5627 5627 5628 5629 5629 5630 5632 5633 5634 5635 5636 5637 5639 5640 5641 5641 5642 5643 5644 5644 5645 5646 5646 5646 5646 5646 5646 5645 5645 5645 5644 5644 5644 5644
5608 5610 5611 5612 5613 5614 5615 5615 5616 5617 5618 5620 5621 5622 5623 5624 5625 5626 5627 5628 5629 5629 5630 5631 5631 5632 5632 5632 5632 5632 5632 5632 5632 5631 5630 5630 5630 5630
5594 5596 5597 5598 5600 5600 5601 5602 5603 5604 5605 5606 5608 5609 5609 5610 5611 5612 5614 5614 5615 5615 5616 5617 5617 5618 5618 5618 5619 5618 5618 5617 5617 5616 5616 5616 5616 5615
5580 5582 5583 5585 5586 5587 5588 5589 5590 5590 5591 5592 5594 5595 5596 5596 5598 5598 5599 5600 5601 5601 5602 5603 5603 5604 5604 5603 5603 5603 5603 5603 5602 5602 5601 5601 5601 5600
5566 5568 5569 5571 5572 5573 5574 5575 5576 5577 5578 5579 5580 5581 5582 5582 5583 5583 5584 5586 5588 5588 5587 5588 5588 5589 5589 5589 5589 5588 5588 5587 5587 5587 5586 5586 5585 5585
5552 5554 5555 5557 5558 5559 5560 5561 5562 5563 5564 5565 5566 5567 5567 5568 5568 5569 5570 5571 5572 5572 5572 5574 5574 5574 5574 5574 5573 5573 5573 5572 5571 5571 5570 5570 5569 5569
5538 5540 5541 5543 5544 5545 5546 5547 5548 5549 5550 5551 5552 5553 5552 5552 5553 5554 5554 5555 5557 5557 5556 5558 5558 5559 5559 5559 5558 5558 5557 5557 5556 5555 5554 5554 5553 5553
5524 5526 5527 5528 5530 5531 5533 5534 5534 5535 5536 5536 5537 5537 5537 5537 5538 5538 5539 5540 5542 5542 5541 5542 5543 5543 5544 5544 5543 5542 5541 5540 5540 5539 5538 5537 5537 5537
5510 5512 5513 5514 5515 5516 5518 5519 5520 5521 5521 5522 5523 5523 5523 5523 5523 5523 5524 5525 5526 5527 5527 5527 5527 5527 5529 5529 5528 5527 5526 5525 5524 5523 5522 5521 5520 5520
5496 5498 5499 5500 5501 5502 5504 5505 5506 5506 5507 5508 5508 5508 5508 5508 5508 5509 5510 5511 5511 5512 5512 5512 5512 5512 5512 5513 5512 5511 5510 5508 5507 5507 5506 5505 5504 5503
5482 5483 5485 5486 5487 5488 5489 5490 5491 5491 5492 5493 5493 5494 5494 5494 5494 5495 5495 5496 5496 5497 5496 5496 5496 5496 5496 5496 5496 5495 5493 5492 5491 5491 5490 5489 5488 5487
5468 5469 5470 5471 5472 5473 5474 5475 5476 5477 5477 5478 5479 5479 5479 5479 5479 5480 5480 5481 5481 5481 5481 5481 5481 5480 5480 5480 5479 5479 5478 5477 5475 5475 5474 5473 5472 5470
5453 5455 5456 5457 5458 5459 5460 5461 5461 5462 5463 5463 5464 5464 5464 5464 5464 5464 5465 5465 5466 5466 5465 5465 5465 5464 5464 5464 5463 5463 5462 5461 5460 5459 5458 5457 5455 5454
5439 5440 5442 5443 5444 5445 5446 5447 5447 5448 5448 5449 5449 5449 5449 5449 5449 5449 5450 5450 5451 5451 5451 5450 5450 5449 5449 5449 5448 5447 5446 5445 5444 5443 5442 5441 5440 5438
5425 5426 5428 5429 5430 5431 5432 5433 5433 5434 5434 5434 5434 5435 5435 5434 5434 5434 5435 5435 5436 5436 5435 5435 5435 5435 5434 5434 5433 5432 5431 5430 5428 5427 5426 5426 5425 5423
5410 5412 5414 5415 5416 5417 5418 5418 5419 5420 5420 5420 5420 5420 5420 5420 5420 5420 5420 5420 5421 5421 5421 5420 5420 5420 5420 5420 5419 5416 5415 5414 5413 5411 5410 5410 5410 5409
5397 5398 5400 5401 5402 5402 5403 5404 5404 5405 5405 5405 5405 5406 5405 5405 5406 5406 5406 5406 5406 5406 5406 5406 5405 5405 5405 5405 5404 5402 5400 5399 5398 5397 5395 5394 5394 5393
5383 5384 5385 5387 5388 5388 5389 5389 5390 5390 5391 5391 5391 5391 5391 5391 5391 5392 5392 5392 5392 5392 5392 5392 5391 5390 5390 5389 5389 5388 5386 5384 5383 5382 5380 5379 5379 5378
5370 5371 5372 5372 5373 5374 5375 5375 5376 5376 5376 5377 5377 5377 5377 5377 5377 5378 5378 5378 5378 5378 5378 5378 5377 5376 5376 5375 5375 5374 5372 5371 5369 5367 5365 5364 5363 5363
5356 5357 5358 5359 5359 5360 5361 5361 5362 5362 5362 5363 5363 5364 5364 5364 5364 5364 5365 5365 5365 5365 5365 5365 5364 5363 5362 5362 5361 5360 5359 5357 5356 5354 5353 5350 5349 5348